TimePDT,TemperatureF,Dew PointF,Humidity,Sea Level PressureIn,VisibilityMPH,Wind Direction,Wind SpeedMPH,Gust SpeedMPH,PrecipitationIn,Events,Conditions,WindDirDegrees,DateUTC
12:53 AM,43.0,42.1,97,29.95,10.0,NW,3.5,-,N/A,,Overcast,310,2012-10-21 07:53:00
1:53 AM,44.1,43.0,96,29.94,10.0,Calm,Calm,-,0.01,,Overcast,0,2012-10-21 08:53:00
2:32 AM,44.6,42.8,93,29.94,9.0,Calm,Calm,-,0.00,Rain,Light Rain,0,2012-10-21 09:32:00
2:53 AM,44.1,44.1,100,29.94,10.0,Calm,Calm,-,0.02,Rain,Light Rain,0,2012-10-21 09:53:00
3:03 AM,44.6,42.8,93,29.93,10.0,South,4.6,-,0.00,,Overcast,170,2012-10-21 10:03:00
3:10 AM,44.6,42.8,93,29.93,10.0,South,4.6,-,0.00,,Overcast,170,2012-10-21 10:10:00
3:53 AM,43.0,42.1,97,29.92,10.0,SSW,4.6,-,0.00,,Partly Cloudy,200,2012-10-21 10:53:00
4:53 AM,42.1,41.0,96,29.91,10.0,South,4.6,-,N/A,,Clear,190,2012-10-21 11:53:00
5:53 AM,39.9,39.9,100,29.92,10.0,Calm,Calm,-,N/A,,Overcast,0,2012-10-21 12:53:00
6:53 AM,42.1,41.0,96,29.93,10.0,Calm,Calm,-,N/A,,Mostly Cloudy,0,2012-10-21 13:53:00
7:53 AM,41.0,41.0,100,29.93,10.0,NNW,4.6,-,N/A,,Overcast,340,2012-10-21 14:53:00
8:53 AM,44.1,43.0,96,29.92,10.0,Calm,Calm,-,N/A,,Mostly Cloudy,0,2012-10-21 15:53:00
9:53 AM,46.9,44.1,90,29.92,10.0,SSW,6.9,-,N/A,,Scattered Clouds,200,2012-10-21 16:53:00
10:53 AM,48.9,43.0,80,29.92,10.0,SSW,9.2,-,N/A,,Mostly Cloudy,200,2012-10-21 17:53:00
11:06 AM,50.0,44.6,82,29.91,10.0,South,11.5,-,N/A,,Mostly Cloudy,190,2012-10-21 18:06:00
11:37 AM,50.0,42.8,76,29.91,10.0,SSW,6.9,-,N/A,,Overcast,200,2012-10-21 18:37:00
11:53 AM,48.9,43.0,80,29.91,10.0,SSW,8.1,-,N/A,,Overcast,200,2012-10-21 18:53:00
12:10 PM,51.8,42.8,71,29.91,10.0,SSW,12.7,18.4,N/A,,Mostly Cloudy,200,2012-10-21 19:10:00
12:53 PM,48.0,43.0,83,29.91,7.0,SW,8.1,-,0.00,Rain,Light Rain,220,2012-10-21 19:53:00
1:53 PM,48.9,46.0,90,29.88,10.0,Calm,Calm,-,0.05,,Mostly Cloudy,0,2012-10-21 20:53:00
2:53 PM,51.1,44.1,77,29.86,10.0,Variable,4.6,-,N/A,,Mostly Cloudy,0,2012-10-21 21:53:00
3:53 PM,51.1,41.0,68,29.85,10.0,SSW,6.9,-,N/A,,Mostly Cloudy,200,2012-10-21 22:53:00
4:53 PM,50.0,42.1,74,29.84,10.0,SW,3.5,-,N/A,,Overcast,220,2012-10-21 23:53:00
5:53 PM,50.0,43.0,77,29.82,10.0,Calm,Calm,-,N/A,,Mostly Cloudy,0,2012-10-22 00:53:00
6:53 PM,48.0,44.1,86,29.81,10.0,Calm,Calm,-,N/A,,Scattered Clouds,0,2012-10-22 01:53:00
7:53 PM,46.9,42.1,83,29.80,10.0,ENE,4.6,-,N/A,,Overcast,60,2012-10-22 02:53:00
8:53 PM,46.9,43.0,86,29.79,10.0,Calm,Calm,-,0.00,Rain,Light Rain,0,2012-10-22 03:53:00
9:53 PM,46.0,44.1,93,29.78,10.0,NE,4.6,-,0.04,Rain,Light Rain,50,2012-10-22 04:53:00
10:53 PM,45.0,44.1,97,29.77,10.0,Calm,Calm,-,0.00,,Overcast,0,2012-10-22 05:53:00
11:53 PM,45.0,44.1,97,29.75,10.0,Calm,Calm,-,N/A,,Overcast,0,2012-10-22 06:53:00